[Date Prev][Date Next][Thread Prev][Thread Next] - [Date Index][Thread Index][Author Index]
2 Line ISS Keps 5-25
- Subject: [sarex] 2 Line ISS Keps 5-25
- From: "Dave Larsen PhD" <doc@xxxxxxxxxxx>
- Date: Mon, 25 Jun 2001 04:20:25 -0700
ISS
1 25544U 98067A 01176.24103009 .00048780 00000-0 52856-3 0 1318
2 25544 51.5712 47.9595 0016693 202.8153 310.5771 15.62877712148337
----
Via the sarex mailing list at AMSAT.ORG courtesy of AMSAT-NA.
To unsubscribe, send "unsubscribe sarex" to Majordomo@amsat.org
AMSAT Home